Regional Weather Roundup
Issued by NWS

Home | Current Version | Previous Version | Text Only | Print | Product List | Glossary Off
Versions: 1 2 3 4 5 6 7 8 9 10 11 12 13 14 15 16 17 18 19 20 21 22 23 24 25 26 27 28 29 30 31 32 33 34 35 36 37 38 39 40 41 42 43 44 45 46 47 48 49 50

000
ASUS43 KLSX 200159
RWRMO

WEATHER SUMMARY FOR MISSOURI
NATIONAL WEATHER SERVICE SPRINGFIELD MO
900 PM CDT FRI SEP 19 2014

NOTE: "FAIR" INDICATES FEW OR NO CLOUDS BELOW 12,000 FEET WITH NO
       SIGNIFICANT WEATHER AND/OR OBSTRUCTIONS TO VISIBILITY.
       CURRENT SKY AND/OR WEATHER CONDITIONS ARE NOT AVAILABLE FOR
       CHILLICOTHE AND FARMINGTON.

MOZ001>031-035>038-043-044-053-054-200300-
...NORTHERN AND WESTERN MISSOURI...

CITY           SKY/WX    TMP DP  RH WIND       PRES   REMARKS
KANSAS CTY INT PTCLDY    71  67  87 S9        29.94R
KANSAS C DTWN  CLEAR     74  68  81 S7        29.93R
LEE`S SUMMIT   CLEAR     73  67  81 S8        29.96R
ST JOSEPH      CLEAR     70  68  93 S7        29.91R
KIRKSVILLE     CLEAR     66  61  84 S9        29.97R

$$
MOZ066>068-077>081-088>096-101>105-200300-
...SOUTHWEST MISSOURI...

CITY           SKY/WX    TMP DP  RH WIND       PRES   REMARKS
SPRINGFIELD    CLEAR     68  63  84 SE5       30.01R
JOPLIN         CLEAR     70  68  93 MISG      30.00R

$$
MOZ032>034-039>042-045>050-055>058-069>072-200300-
...CENTRAL MISSOURI...

CITY           SKY/WX    TMP DP  RH WIND       PRES   REMARKS
COLUMBIA       CLEAR     68  62  81 SE6       30.00R
JEFFERSON CITY CLEAR     66  62  87 SE3       29.99R
ROLLA          CLEAR     64  59  83 SE7       30.01R HAZE
SEDALIA        CLEAR     68  64  87 S6        29.99R
WHITEMAN AFB   CLEAR     69  65  86 S6        29.97R
OSAGE BEACH    CLEAR     66  63  88 SE3       30.00R

$$
MOZ051-052-059>065-200300-
...EAST CENTRAL MISSOURI...

CITY           SKY/WX    TMP DP  RH WIND       PRES   REMARKS
ST LOUIS INTL  NOT AVBL
SPIRIT OF STL  CLEAR     65  60  84 S5        30.00R
ST CHARLES     CLEAR     62  61  96 CALM      30.00R FOG

$$
MOZ072>076-082>087-097>100-106>115-200300-
...SOUTH CENTRAL AND SOUTHEAST MISSOURI...

CITY           SKY/WX    TMP DP  RH WIND       PRES   REMARKS
CAPE GIRARDEAU CLEAR     62  59  90 CALM      30.02R
FARMINGTON     CLEAR     63  61  94 CALM      30.06R
POPLAR BLUFF   CLEAR     66  61  84 N3        30.01R
WEST PLAINS    CLEAR     65  62  90 CALM      30.04R

$$



USA.gov is the U.S. government's official web portal to all federal, state and local government web resources and services.